Location: PACMO
(41.3967°N, 90.3760°W)
Time: 15:36:45
(UTC-05:00)

NOAA 19 - Visible Passes

Search period start: 23 May 2017 00:00
Search period end: 02 June 2017 00:00
Orbit: 842 x 862 km, 99.1° (Epoch: 22 May)

Date Brightness Start Highest point End Pass type
(mag) Time Alt. Az. Time Alt. Az. Time Alt. Az.
23 May 7.4 03:29:44 10° NE 03:33:48 21° E 03:37:51 10° SE visible
24 May 7.6 03:18:50 10° NE 03:22:12 16° E 03:25:32 10° SE visible
24 May 5.3 04:57:49 10° N 05:03:21 68° WNW 05:08:51 10° SSW visible
25 May 7.8 03:08:20 10° ENE 03:10:34 12° E 03:12:47 10° ESE visible
25 May 5.3 04:46:19 10° NNE 04:51:54 85° WNW 04:57:28 10° SSW visible
26 May 5.4 04:34:50 10° NNE 04:40:26 77° ESE 04:45:59 10° S visible
27 May 5.7 04:23:25 10° NNE 04:28:56 61° ESE 04:34:25 10° S visible
28 May 6.1 04:12:02 10° NNE 04:17:26 48° E 04:22:46 10° S visible
29 May 6.5 04:00:43 10° NNE 04:05:53 38° E 04:11:01 10° SSE visible
30 May 6.9 03:49:28 10° NE 03:54:20 30° E 03:59:10 10° SSE visible
31 May 7.2 03:38:18 10° NE 03:42:45 24° E 03:47:11 10° SSE visible
01 Jun 7.5 03:27:16 10° NE 03:31:10 19° E 03:35:01 10° SE visible
